Time,TemperatureF,DewpointF,PressureIn,WindDirection,WindDirectionDegrees,WindSpeedMPH,WindSpeedGustMPH,Humidity,HourlyPrecipIn,Conditions,Clouds,dailyrainin,SoftwareType,DateUTC
2014-12-22 00:03:00,-999.0,-99.9,30.25,North,-999,-999.0,-999.0,-999,-99.99,,,0.00,weatherlink.com 1.10,2014-12-22 08:03:00,
2014-12-22 00:18:00,-999.0,-99.9,30.24,North,-999,-999.0,-999.0,-999,-99.99,,,0.00,weatherlink.com 1.10,2014-12-22 08:18:00,
2014-12-22 00:33:00,-999.0,-99.9,30.24,North,-999,-999.0,-999.0,-999,-99.99,,,0.00,weatherlink.com 1.10,2014-12-22 08:33:00,
2014-12-22 00:48:00,-999.0,-99.9,30.24,North,-999,-999.0,-999.0,-999,-99.99,,,0.00,weatherlink.com 1.10,2014-12-22 08:48:00,
2014-12-22 01:03:00,-999.0,-99.9,30.24,North,-999,-999.0,-999.0,-999,-99.99,,,0.00,weatherlink.com 1.10,2014-12-22 09:03:00,
2014-12-22 01:18:00,-999.0,-99.9,30.24,North,-999,-999.0,-999.0,-999,-99.99,,,0.00,weatherlink.com 1.10,2014-12-22 09:18:00,
2014-12-22 01:33:00,-999.0,-99.9,30.24,North,-999,-999.0,-999.0,-999,-99.99,,,0.00,weatherlink.com 1.10,2014-12-22 09:33:00,
2014-12-22 01:48:00,-999.0,-99.9,30.24,North,-999,-999.0,-999.0,-999,-99.99,,,0.00,weatherlink.com 1.10,2014-12-22 09:48:00,
2014-12-22 02:03:00,-999.0,-99.9,30.24,North,-999,-999.0,-999.0,-999,-99.99,,,0.00,weatherlink.com 1.10,2014-12-22 10:03:00,
2014-12-22 02:18:00,-999.0,-99.9,30.24,North,-999,-999.0,-999.0,-999,-99.99,,,0.00,weatherlink.com 1.10,2014-12-22 10:18:00,
2014-12-22 02:33:00,-999.0,-99.9,30.24,North,-999,-999.0,-999.0,-999,-99.99,,,0.00,weatherlink.com 1.10,2014-12-22 10:33:00,
2014-12-22 02:48:00,-999.0,-99.9,30.24,North,-999,-999.0,-999.0,-999,-99.99,,,0.00,weatherlink.com 1.10,2014-12-22 10:48:00,
2014-12-22 03:03:00,-999.0,-99.9,30.23,North,-999,-999.0,-999.0,-999,-99.99,,,0.00,weatherlink.com 1.10,2014-12-22 11:03:00,
2014-12-22 03:18:00,-999.0,-99.9,30.23,North,-999,-999.0,-999.0,-999,-99.99,,,0.00,weatherlink.com 1.10,2014-12-22 11:18:00,
2014-12-22 03:33:00,-999.0,-99.9,30.23,North,-999,-999.0,-999.0,-999,-99.99,,,0.00,weatherlink.com 1.10,2014-12-22 11:33:00,
2014-12-22 03:48:00,-999.0,-99.9,30.23,North,-999,-999.0,-999.0,-999,-99.99,,,0.00,weatherlink.com 1.10,2014-12-22 11:48:00,
2014-12-22 04:03:00,-999.0,-99.9,30.23,North,-999,-999.0,-999.0,-999,-99.99,,,0.00,weatherlink.com 1.10,2014-12-22 12:03:00,
2014-12-22 04:18:00,-999.0,-99.9,30.22,North,-999,-999.0,-999.0,-999,-99.99,,,0.00,weatherlink.com 1.10,2014-12-22 12:18:00,
2014-12-22 04:33:00,-999.0,-99.9,30.23,North,-999,-999.0,-999.0,-999,-99.99,,,0.00,weatherlink.com 1.10,2014-12-22 12:33:00,
2014-12-22 04:48:00,-999.0,-99.9,30.22,North,-999,-999.0,-999.0,-999,-99.99,,,0.00,weatherlink.com 1.10,2014-12-22 12:48:00,
2014-12-22 05:03:00,-999.0,-99.9,30.22,North,-999,-999.0,-999.0,-999,-99.99,,,0.00,weatherlink.com 1.10,2014-12-22 13:03:00,
2014-12-22 05:18:00,-999.0,-99.9,30.22,North,-999,-999.0,-999.0,-999,-99.99,,,0.00,weatherlink.com 1.10,2014-12-22 13:18:00,
2014-12-22 05:33:00,-999.0,-99.9,30.22,North,-999,-999.0,-999.0,-999,-99.99,,,0.00,weatherlink.com 1.10,2014-12-22 13:33:00,
2014-12-22 05:48:00,-999.0,-99.9,30.22,North,-999,-999.0,-999.0,-999,-99.99,,,0.00,weatherlink.com 1.10,2014-12-22 13:48:00,
2014-12-22 06:03:00,-999.0,-99.9,30.22,North,-999,-999.0,-999.0,-999,-99.99,,,0.00,weatherlink.com 1.10,2014-12-22 14:03:00,
2014-12-22 06:18:00,-999.0,-99.9,30.22,North,-999,-999.0,-999.0,-999,-99.99,,,0.00,weatherlink.com 1.10,2014-12-22 14:18:00,
2014-12-22 06:33:00,-999.0,-99.9,30.22,North,-999,-999.0,-999.0,-999,-99.99,,,0.00,weatherlink.com 1.10,2014-12-22 14:33:00,
2014-12-22 06:48:00,-999.0,-99.9,30.22,North,-999,-999.0,-999.0,-999,-99.99,,,0.00,weatherlink.com 1.10,2014-12-22 14:48:00,
2014-12-22 07:03:00,-999.0,-99.9,30.23,North,-999,-999.0,-999.0,-999,-99.99,,,0.00,weatherlink.com 1.10,2014-12-22 15:03:00,
2014-12-22 07:18:00,-999.0,-99.9,30.23,North,-999,-999.0,-999.0,-999,-99.99,,,0.00,weatherlink.com 1.10,2014-12-22 15:18:00,
2014-12-22 07:33:00,-999.0,-99.9,30.23,North,-999,-999.0,-999.0,-999,-99.99,,,0.00,weatherlink.com 1.10,2014-12-22 15:33:00,
2014-12-22 07:48:00,-999.0,-99.9,30.23,North,-999,-999.0,-999.0,-999,-99.99,,,0.00,weatherlink.com 1.10,2014-12-22 15:48:00,
2014-12-22 08:03:00,-999.0,-99.9,30.23,North,-999,-999.0,-999.0,-999,-99.99,,,0.00,weatherlink.com 1.10,2014-12-22 16:03:00,
2014-12-22 08:18:00,-999.0,-99.9,30.23,North,-999,-999.0,-999.0,-999,-99.99,,,0.00,weatherlink.com 1.10,2014-12-22 16:18:00,
2014-12-22 08:33:00,-999.0,-99.9,30.23,North,-999,-999.0,-999.0,-999,-99.99,,,0.00,weatherlink.com 1.10,2014-12-22 16:33:00,
2014-12-22 08:48:00,-999.0,-99.9,30.23,North,-999,-999.0,-999.0,-999,-99.99,,,0.00,weatherlink.com 1.10,2014-12-22 16:48:00,
2014-12-22 09:03:00,-999.0,-99.9,30.24,North,-999,-999.0,-999.0,-999,-99.99,,,0.00,weatherlink.com 1.10,2014-12-22 17:03:00,
2014-12-22 09:18:00,59.5,59.0,30.24,NW,323,1.0,-999.0,97,-99.99,,,0.00,weatherlink.com 1.10,2014-12-22 17:18:00,
2014-12-22 09:33:00,59.6,59.0,30.24,NNW,341,6.0,-999.0,97,-99.99,,,0.00,weatherlink.com 1.10,2014-12-22 17:33:00,
2014-12-22 09:48:00,59.8,59.0,30.25,NNW,340,9.0,-999.0,97,-99.99,,,0.00,weatherlink.com 1.10,2014-12-22 17:48:00,
2014-12-22 10:03:00,60.2,59.0,30.25,NW,304,4.0,-999.0,96,-99.99,,,0.00,weatherlink.com 1.10,2014-12-22 18:03:00,
2014-12-22 10:18:00,60.6,59.0,30.25,WNW,292,4.0,-999.0,95,-99.99,,,0.00,weatherlink.com 1.10,2014-12-22 18:18:00,
2014-12-22 10:33:00,60.6,59.0,30.25,NNW,336,4.0,-999.0,95,-99.99,,,0.00,weatherlink.com 1.10,2014-12-22 18:33:00,
2014-12-22 10:48:00,60.6,59.0,30.24,NW,323,5.0,-999.0,94,-99.99,,,0.00,weatherlink.com 1.10,2014-12-22 18:48:00,
2014-12-22 11:03:00,60.9,59.0,30.24,WNW,296,0.0,-999.0,94,-99.99,,,0.00,weatherlink.com 1.10,2014-12-22 19:03:00,
2014-12-22 11:18:00,61.4,60.0,30.23,NW,315,4.0,-999.0,94,-99.99,,,0.00,weatherlink.com 1.10,2014-12-22 19:18:00,
2014-12-22 11:33:00,61.9,60.0,30.22,WNW,303,3.0,-999.0,93,-99.99,,,0.00,weatherlink.com 1.10,2014-12-22 19:33:00,
2014-12-22 11:48:00,62.0,60.0,30.21,NW,318,2.0,-999.0,92,-99.99,,,0.00,weatherlink.com 1.10,2014-12-22 19:48:00,
2014-12-22 12:03:00,61.3,59.0,30.20,WNW,302,5.0,-999.0,91,-99.99,,,0.00,weatherlink.com 1.10,2014-12-22 20:03:00,